Time,TemperatureF,DewpointF,PressureIn,WindDirection,WindDirectionDegrees,WindSpeedMPH,WindSpeedGustMPH,Humidity,HourlyPrecipIn,Conditions,Clouds,dailyrainin,SoftwareType,DateUTC
2013-03-03 00:00:00,24.6,18.1,29.88,NW,311,0.3,4.0,76,0.00,,,0.00,WeatherDisplay:10.37,2013-03-03 05:00:00,
2013-03-03 00:05:00,24.6,18.4,29.88,NNE,15,0.8,4.0,77,0.00,,,0.00,WeatherDisplay:10.37,2013-03-03 05:05:00,
2013-03-03 00:10:00,24.5,18.3,29.89,NW,315,1.5,4.0,77,0.00,,,0.00,WeatherDisplay:10.37,2013-03-03 05:10:00,
2013-03-03 00:15:00,24.5,18.3,29.89,NW,318,0.8,4.0,77,0.00,,,0.00,WeatherDisplay:10.37,2013-03-03 05:15:00,
2013-03-03 00:20:00,24.5,18.6,29.89,NNE,18,0.7,4.0,78,0.00,,,0.00,WeatherDisplay:10.37,2013-03-03 05:20:00,
2013-03-03 00:25:00,24.4,18.2,29.89,North,358,0.5,6.0,77,0.00,,,0.00,WeatherDisplay:10.37,2013-03-03 05:25:00,
2013-03-03 00:30:00,24.4,18.2,29.89,NW,312,0.0,6.0,77,0.00,,,0.00,WeatherDisplay:10.37,2013-03-03 05:30:00,
2013-03-03 00:35:00,24.4,18.2,29.89,NNW,330,1.1,6.0,77,0.00,,,0.00,WeatherDisplay:10.37,2013-03-03 05:35:00,
2013-03-03 00:40:00,24.3,18.1,29.88,NNE,32,0.0,6.0,77,0.00,,,0.00,WeatherDisplay:10.37,2013-03-03 05:40:00,
2013-03-03 00:45:00,24.3,18.4,29.88,NNE,29,0.0,6.0,78,0.00,,,0.00,WeatherDisplay:10.37,2013-03-03 05:45:00,
2013-03-03 00:50:00,24.2,18.3,29.89,NNE,29,0.3,6.0,78,0.00,,,0.00,WeatherDisplay:10.37,2013-03-03 05:50:00,
2013-03-03 00:55:00,24.2,18.3,29.89,WNW,300,1.8,6.0,78,0.00,,,0.00,WeatherDisplay:10.37,2013-03-03 05:55:00,
2013-03-03 01:00:00,24.2,18.3,29.89,NNE,13,1.3,6.0,78,0.00,,,0.00,WeatherDisplay:10.37,2013-03-03 06:00:00,
2013-03-03 01:05:00,24.1,18.5,29.89,NNW,332,1.3,6.0,79,0.00,,,0.00,WeatherDisplay:10.37,2013-03-03 06:05:00,
2013-03-03 01:10:00,23.9,18.6,29.89,North,356,2.3,6.0,80,0.00,,,0.00,WeatherDisplay:10.37,2013-03-03 06:10:00,
2013-03-03 01:15:00,23.9,18.6,29.89,NNW,337,2.0,6.0,80,0.00,,,0.00,WeatherDisplay:10.37,2013-03-03 06:15:00,
2013-03-03 01:20:00,23.8,18.5,29.89,NW,321,1.7,8.1,80,0.00,,,0.00,WeatherDisplay:10.37,2013-03-03 06:20:00,
2013-03-03 01:25:00,23.7,18.4,29.89,NW,316,0.8,8.1,80,0.00,,,0.00,WeatherDisplay:10.37,2013-03-03 06:25:00,
2013-03-03 01:30:00,23.6,18.0,29.89,NW,304,2.8,8.1,79,0.00,,,0.00,WeatherDisplay:10.37,2013-03-03 06:30:00,
2013-03-03 01:35:00,23.6,18.0,29.89,NNW,335,1.0,8.1,79,0.00,,,0.00,WeatherDisplay:10.37,2013-03-03 06:35:00,
2013-03-03 01:40:00,23.5,17.9,29.89,NNW,330,1.4,8.1,79,0.00,,,0.00,WeatherDisplay:10.37,2013-03-03 06:40:00,
2013-03-03 01:45:00,23.5,17.9,29.89,NW,311,1.3,8.1,79,0.00,,,0.00,WeatherDisplay:10.37,2013-03-03 06:45:00,
2013-03-03 01:50:00,23.5,17.9,29.89,WNW,300,1.6,8.1,79,0.00,,,0.00,WeatherDisplay:10.37,2013-03-03 06:50:00,
2013-03-03 01:55:00,23.5,17.9,29.89,North,354,0.9,8.1,79,0.00,,,0.00,WeatherDisplay:10.37,2013-03-03 06:55:00,
2013-03-03 02:00:00,23.5,18.2,29.88,West,270,0.1,8.1,80,0.00,,,0.00,WeatherDisplay:10.37,2013-03-03 07:00:00,
2013-03-03 02:05:00,23.4,18.1,29.88,NE,46,0.1,8.1,80,0.00,,,0.00,WeatherDisplay:10.37,2013-03-03 07:05:00,
2013-03-03 02:10:00,23.4,18.1,29.88,North,359,1.9,8.1,80,0.00,,,0.00,WeatherDisplay:10.37,2013-03-03 07:10:00,
2013-03-03 02:15:00,23.4,18.1,29.88,NW,316,0.3,8.1,80,0.00,,,0.00,WeatherDisplay:10.37,2013-03-03 07:15:00,
2013-03-03 02:20:00,23.3,18.0,29.88,WNW,300,0.0,8.1,80,0.00,,,0.00,WeatherDisplay:10.37,2013-03-03 07:20:00,
2013-03-03 02:25:00,23.2,17.7,29.88,NNW,332,2.3,8.1,79,0.00,,,0.00,WeatherDisplay:10.37,2013-03-03 07:25:00,
2013-03-03 02:30:00,23.2,17.7,29.88,ENE,58,1.1,8.1,79,0.00,,,0.00,WeatherDisplay:10.37,2013-03-03 07:30:00,
2013-03-03 02:35:00,23.2,17.7,29.88,NW,318,0.1,8.1,79,0.00,,,0.00,WeatherDisplay:10.37,2013-03-03 07:35:00,
2013-03-03 02:40:00,23.1,17.6,29.88,NNW,343,0.9,8.1,79,0.00,,,0.00,WeatherDisplay:10.37,2013-03-03 07:40:00,
2013-03-03 02:45:00,23.1,17.8,29.87,NW,309,1.2,8.1,80,0.00,,,0.00,WeatherDisplay:10.37,2013-03-03 07:45:00,
2013-03-03 02:50:00,23.0,17.7,29.87,NNE,29,1.9,8.1,80,0.00,,,0.00,WeatherDisplay:10.37,2013-03-03 07:50:00,
2013-03-03 02:55:00,22.9,17.9,29.87,WNW,295,0.7,8.1,81,0.00,,,0.00,WeatherDisplay:10.37,2013-03-03 07:55:00,
2013-03-03 03:00:00,22.9,17.9,29.87,NNW,332,0.0,8.1,81,0.00,,,0.00,WeatherDisplay:10.37,2013-03-03 08:00:00,
2013-03-03 03:05:00,22.9,17.9,29.87,WNW,301,0.6,8.1,81,0.00,,,0.00,WeatherDisplay:10.37,2013-03-03 08:05:00,
2013-03-03 03:10:00,22.8,17.8,29.87,North,349,1.3,8.1,81,0.00,,,0.00,WeatherDisplay:10.37,2013-03-03 08:10:00,
2013-03-03 03:15:00,22.9,17.9,29.87,North,350,0.8,8.1,81,0.00,,,0.00,WeatherDisplay:10.37,2013-03-03 08:15:00,
2013-03-03 03:20:00,22.9,17.9,29.87,NW,311,0.6,8.1,81,0.00,,,0.00,WeatherDisplay:10.37,2013-03-03 08:20:00,
2013-03-03 03:25:00,22.8,17.6,29.87,WNW,298,2.0,8.1,80,0.00,,,0.00,WeatherDisplay:10.37,2013-03-03 08:25:00,
2013-03-03 03:30:00,22.8,17.3,29.87,NW,313,1.4,8.1,79,0.00,,,0.00,WeatherDisplay:10.37,2013-03-03 08:30:00,
2013-03-03 03:35:00,22.7,17.5,29.87,NNW,335,1.5,8.1,80,0.00,,,0.00,WeatherDisplay:10.37,2013-03-03 08:35:00,
2013-03-03 03:40:00,22.7,17.5,29.87,NNW,330,2.1,8.1,80,0.00,,,0.00,WeatherDisplay:10.37,2013-03-03 08:40:00,
2013-03-03 03:45:00,22.6,17.4,29.87,NW,321,2.0,8.1,80,0.00,,,0.00,WeatherDisplay:10.37,2013-03-03 08:45:00,
2013-03-03 03:50:00,22.6,17.4,29.87,NNW,332,2.5,8.1,80,0.00,,,0.00,WeatherDisplay:10.37,2013-03-03 08:50:00,
2013-03-03 03:55:00,22.5,17.3,29.88,NE,45,1.8,8.1,80,0.00,,,0.00,WeatherDisplay:10.37,2013-03-03 08:55:00,
2013-03-03 04:00:00,22.5,17.3,29.88,North,8,1.0,8.1,80,0.00,,,0.00,WeatherDisplay:10.37,2013-03-03 09:00:00,
2013-03-03 04:06:00,22.5,17.3,29.88,NW,311,1.4,8.1,80,0.00,,,0.00,WeatherDisplay:10.37,2013-03-03 09:06:00,
2013-03-03 04:11:00,22.4,17.2,29.87,NW,325,0.2,8.1,80,0.00,,,0.00,WeatherDisplay:10.37,2013-03-03 09:11:00,
2013-03-03 04:16:00,22.4,17.5,29.87,NW,318,1.3,8.1,81,0.00,,,0.00,WeatherDisplay:10.37,2013-03-03 09:16:00,
2013-03-03 04:21:00,22.3,17.4,29.87,WNW,300,0.3,8.1,81,0.00,,,0.00,WeatherDisplay:10.37,2013-03-03 09:21:00,
2013-03-03 04:26:00,22.3,17.6,29.87,NW,312,0.5,8.1,82,0.00,,,0.00,WeatherDisplay:10.37,2013-03-03 09:26:00,
2013-03-03 04:31:00,22.2,17.5,29.87,West,264,1.0,8.1,82,0.00,,,0.00,WeatherDisplay:10.37,2013-03-03 09:31:00,
2013-03-03 04:36:00,22.2,17.5,29.87,North,8,0.8,8.1,82,0.00,,,0.00,WeatherDisplay:10.37,2013-03-03 09:36:00,
2013-03-03 04:41:00,22.2,17.5,29.87,NE,39,0.5,8.1,82,0.00,,,0.00,WeatherDisplay:10.37,2013-03-03 09:41:00,
2013-03-03 04:46:00,22.2,17.5,29.88,NNE,33,1.2,8.1,82,0.00,,,0.00,WeatherDisplay:10.37,2013-03-03 09:46:00,
2013-03-03 04:51:00,22.1,17.4,29.88,NNW,342,1.8,8.1,82,0.00,,,0.00,WeatherDisplay:10.37,2013-03-03 09:51:00,
2013-03-03 04:56:00,22.1,17.7,29.88,WNW,302,2.7,8.1,83,0.00,,,0.00,WeatherDisplay:10.37,2013-03-03 09:56:00,
2013-03-03 05:01:00,22.0,17.6,29.88,NW,313,1.0,8.1,83,0.00,,,0.00,WeatherDisplay:10.37,2013-03-03 10:01:00,
2013-03-03 05:06:00,22.0,17.6,29.88,NW,307,0.6,8.1,83,0.00,,,0.00,WeatherDisplay:10.37,2013-03-03 10:06:00,
2013-03-03 05:11:00,22.0,17.9,29.88,WNW,290,0.7,8.1,84,0.00,,,0.00,WeatherDisplay:10.37,2013-03-03 10:11:00,
2013-03-03 05:16:00,22.0,17.9,29.88,NW,304,0.5,8.1,84,0.00,,,0.00,WeatherDisplay:10.37,2013-03-03 10:16:00,
2013-03-03 05:21:00,22.0,17.9,29.88,WNW,300,1.4,8.1,84,0.00,,,0.00,WeatherDisplay:10.37,2013-03-03 10:21:00,
2013-03-03 05:26:00,22.0,18.2,29.88,NNE,33,1.6,8.1,85,0.00,,,0.00,WeatherDisplay:10.37,2013-03-03 10:26:00,
2013-03-03 05:31:00,22.0,18.2,29.88,WNW,294,0.1,8.1,85,0.00,,,0.00,WeatherDisplay:10.37,2013-03-03 10:31:00,
2013-03-03 05:36:00,22.0,18.2,29.88,WNW,287,1.2,8.1,85,0.00,,,0.00,WeatherDisplay:10.37,2013-03-03 10:36:00,
2013-03-03 05:41:00,21.9,18.1,29.88,West,279,0.5,8.1,85,0.00,,,0.00,WeatherDisplay:10.37,2013-03-03 10:41:00,
2013-03-03 05:46:00,21.9,18.1,29.88,NW,304,1.5,8.1,85,0.00,,,0.00,WeatherDisplay:10.37,2013-03-03 10:46:00,
2013-03-03 05:51:00,21.8,18.3,29.88,WNW,295,0.8,8.1,86,0.00,,,0.00,WeatherDisplay:10.37,2013-03-03 10:51:00,
2013-03-03 05:56:00,21.7,18.2,29.88,WNW,301,1.4,8.1,86,0.00,,,0.00,WeatherDisplay:10.37,2013-03-03 10:56:00,
2013-03-03 06:01:00,21.6,18.1,29.88,NW,304,0.0,8.1,86,0.00,,,0.00,WeatherDisplay:10.37,2013-03-03 11:01:00,
2013-03-03 06:06:00,21.5,18.2,29.88,WNW,295,1.4,8.1,87,0.00,,,0.00,WeatherDisplay:10.37,2013-03-03 11:06:00,
2013-03-03 06:11:00,21.5,18.2,29.88,NE,44,0.8,8.1,87,0.00,,,0.00,WeatherDisplay:10.37,2013-03-03 11:11:00,
2013-03-03 06:16:00,21.5,18.2,29.88,NNE,23,0.7,8.1,87,0.00,,,0.00,WeatherDisplay:10.37,2013-03-03 11:16:00,
2013-03-03 06:21:00,21.4,18.1,29.89,WNW,300,0.1,8.1,87,0.00,,,0.00,WeatherDisplay:10.37,2013-03-03 11:21:00,
2013-03-03 06:26:00,21.3,18.0,29.89,NW,315,0.0,8.1,87,0.00,,,0.00,WeatherDisplay:10.37,2013-03-03 11:26:00,
2013-03-03 06:31:00,21.3,18.0,29.89,WNW,287,1.0,8.1,87,0.00,,,0.00,WeatherDisplay:10.37,2013-03-03 11:31:00,
2013-03-03 06:36:00,21.3,18.0,29.89,WNW,300,0.3,8.1,87,0.00,,,0.00,WeatherDisplay:10.37,2013-03-03 11:36:00,
2013-03-03 06:41:00,21.3,18.0,29.89,NNW,337,1.0,8.1,87,0.00,,,0.00,WeatherDisplay:10.37,2013-03-03 11:41:00,
2013-03-03 06:46:00,21.3,18.0,29.89,WNW,286,0.5,8.1,87,0.00,,,0.00,WeatherDisplay:10.37,2013-03-03 11:46:00,
2013-03-03 06:51:00,21.3,18.0,29.89,NW,305,1.0,8.1,87,0.00,,,0.00,WeatherDisplay:10.37,2013-03-03 11:51:00,
2013-03-03 06:56:00,21.2,17.9,29.89,WNW,292,1.1,8.1,87,0.00,,,0.00,WeatherDisplay:10.37,2013-03-03 11:56:00,
2013-03-03 07:01:00,21.1,17.8,29.89,NNW,329,0.3,8.1,87,0.00,,,0.00,WeatherDisplay:10.37,2013-03-03 12:01:00,
2013-03-03 07:06:00,21.1,18.1,29.89,ENE,60,0.2,8.1,88,0.00,,,0.00,WeatherDisplay:10.37,2013-03-03 12:06:00,
2013-03-03 07:11:00,21.1,18.1,29.89,North,351,0.9,8.1,88,0.00,,,0.00,WeatherDisplay:10.37,2013-03-03 12:11:00,
2013-03-03 07:16:00,21.1,17.8,29.89,NW,315,1.2,8.1,87,0.00,,,0.00,WeatherDisplay:10.37,2013-03-03 12:16:00,
2013-03-03 07:21:00,21.1,17.6,29.89,WNW,293,0.9,8.1,86,0.00,,,0.00,WeatherDisplay:10.37,2013-03-03 12:21:00,
2013-03-03 07:26:00,21.2,17.7,29.89,NW,320,0.3,8.1,86,0.00,,,0.00,WeatherDisplay:10.37,2013-03-03 12:26:00,
2013-03-03 07:31:00,21.3,17.8,29.90,NW,318,0.2,8.1,86,0.00,,,0.00,WeatherDisplay:10.37,2013-03-03 12:31:00,
2013-03-03 07:36:00,21.3,17.8,29.90,WNW,298,0.0,8.1,86,0.00,,,0.00,WeatherDisplay:10.37,2013-03-03 12:36:00,
2013-03-03 07:41:00,21.4,17.9,29.90,NW,316,1.4,8.1,86,0.00,,,0.00,WeatherDisplay:10.37,2013-03-03 12:41:00,
2013-03-03 07:46:00,21.3,17.8,29.90,NW,316,0.9,8.1,86,0.00,,,0.00,WeatherDisplay:10.37,2013-03-03 12:46:00,
2013-03-03 07:51:00,21.4,17.9,29.90,North,359,1.1,8.1,86,0.00,,,0.00,WeatherDisplay:10.37,2013-03-03 12:51:00,
2013-03-03 07:56:00,21.5,18.0,29.90,NNW,347,0.6,8.1,86,0.00,,,0.00,WeatherDisplay:10.37,2013-03-03 12:56:00,
2013-03-03 08:01:00,21.5,17.7,29.90,WNW,295,1.2,8.1,85,0.00,,,0.00,WeatherDisplay:10.37,2013-03-03 13:01:00,
2013-03-03 08:06:00,21.5,18.0,29.91,NW,312,1.0,8.1,86,0.00,,,0.00,WeatherDisplay:10.37,2013-03-03 13:06:00,
2013-03-03 08:11:00,21.6,18.1,29.91,WNW,298,0.9,8.1,86,0.00,,,0.00,WeatherDisplay:10.37,2013-03-03 13:11:00,
2013-03-03 08:16:00,21.7,17.6,29.90,WNW,293,2.1,8.1,84,0.00,,,0.00,WeatherDisplay:10.37,2013-03-03 13:16:00,
2013-03-03 08:21:00,21.8,17.4,29.90,NNW,328,1.1,8.1,83,0.00,,,0.00,WeatherDisplay:10.37,2013-03-03 13:21:00,
2013-03-03 08:26:00,21.9,17.5,29.90,WNW,293,1.5,8.1,83,0.00,,,0.00,WeatherDisplay:10.37,2013-03-03 13:26:00,
2013-03-03 08:31:00,22.1,17.7,29.90,WNW,295,0.9,8.1,83,0.00,,,0.00,WeatherDisplay:10.37,2013-03-03 13:31:00,
2013-03-03 08:36:00,22.3,17.6,29.90,NW,304,2.5,8.1,82,0.00,,,0.00,WeatherDisplay:10.37,2013-03-03 13:36:00,
2013-03-03 08:41:00,22.2,17.3,29.90,WNW,285,3.6,8.1,81,0.00,,,0.00,WeatherDisplay:10.37,2013-03-03 13:41:00,
2013-03-03 08:46:00,22.2,17.5,29.90,NNW,328,0.9,8.1,82,0.00,,,0.00,WeatherDisplay:10.37,2013-03-03 13:46:00,
2013-03-03 08:51:00,22.1,17.7,29.90,WNW,301,1.7,8.1,83,0.00,,,0.00,WeatherDisplay:10.37,2013-03-03 13:51:00,
2013-03-03 08:56:00,22.1,17.7,29.90,NW,314,2.7,8.1,83,0.00,,,0.00,WeatherDisplay:10.37,2013-03-03 13:56:00,
2013-03-03 09:01:00,22.3,18.2,29.90,WNW,293,1.4,8.1,84,0.00,,,0.00,WeatherDisplay:10.37,2013-03-03 14:01:00,
2013-03-03 09:06:00,22.5,18.4,29.90,West,278,0.8,8.1,84,0.00,,,0.00,WeatherDisplay:10.37,2013-03-03 14:06:00,
2013-03-03 09:11:00,22.5,18.1,29.90,WNW,302,2.8,8.1,83,0.00,,,0.00,WeatherDisplay:10.37,2013-03-03 14:11:00,
2013-03-03 09:16:00,22.6,18.5,29.90,NW,304,1.1,8.1,84,0.00,,,0.00,WeatherDisplay:10.37,2013-03-03 14:16:00,
2013-03-03 09:21:00,22.6,18.5,29.90,West,280,3.6,8.1,84,0.00,,,0.00,WeatherDisplay:10.37,2013-03-03 14:21:00,
2013-03-03 09:26:00,22.5,18.4,29.90,SW,219,2.5,8.1,84,0.00,,,0.00,WeatherDisplay:10.37,2013-03-03 14:26:00,
2013-03-03 09:31:00,22.5,18.7,29.90,WNW,293,2.4,8.1,85,0.00,,,0.00,WeatherDisplay:10.37,2013-03-03 14:31:00,
2013-03-03 09:36:00,22.7,18.6,29.90,WNW,286,1.4,8.1,84,0.00,,,0.00,WeatherDisplay:10.37,2013-03-03 14:36:00,
2013-03-03 09:41:00,22.6,18.8,29.90,WNW,297,0.8,8.1,85,0.00,,,0.00,WeatherDisplay:10.37,2013-03-03 14:41:00,
2013-03-03 09:46:00,22.7,18.9,29.90,NNW,328,2.9,8.1,85,0.00,,,0.00,WeatherDisplay:10.37,2013-03-03 14:46:00,
2013-03-03 09:51:00,22.8,18.4,29.90,NW,319,2.4,8.1,83,0.00,,,0.00,WeatherDisplay:10.37,2013-03-03 14:51:00,
2013-03-03 09:56:00,22.7,18.0,29.90,WSW,257,2.2,8.1,82,0.00,,,0.00,WeatherDisplay:10.37,2013-03-03 14:56:00,
2013-03-03 10:01:00,22.7,17.7,29.90,WSW,257,4.1,8.1,81,0.00,,,0.00,WeatherDisplay:10.37,2013-03-03 15:01:00,
2013-03-03 10:07:00,22.9,17.9,29.89,West,259,1.1,8.1,81,0.00,,,0.00,WeatherDisplay:10.37,2013-03-03 15:07:00,
2013-03-03 10:12:00,23.2,17.9,29.89,WNW,288,2.5,8.1,80,0.00,,,0.00,WeatherDisplay:10.37,2013-03-03 15:12:00,
2013-03-03 10:17:00,23.4,17.8,29.89,West,277,3.8,8.1,79,0.00,,,0.00,WeatherDisplay:10.37,2013-03-03 15:17:00,
2013-03-03 10:22:00,23.4,17.6,29.89,West,262,1.8,8.1,78,0.00,,,0.00,WeatherDisplay:10.37,2013-03-03 15:22:00,
2013-03-03 10:27:00,23.6,17.7,29.89,WNW,295,4.4,8.1,78,0.00,,,0.00,WeatherDisplay:10.37,2013-03-03 15:27:00,
2013-03-03 10:32:00,23.5,17.3,29.89,WNW,295,4.0,8.1,77,0.00,,,0.00,WeatherDisplay:10.37,2013-03-03 15:32:00,
2013-03-03 10:37:00,23.5,16.7,29.89,WNW,295,3.0,9.2,75,0.00,,,0.00,WeatherDisplay:10.37,2013-03-03 15:37:00,
2013-03-03 10:42:00,23.8,17.0,29.89,NW,315,2.6,9.2,75,0.00,,,0.00,WeatherDisplay:10.37,2013-03-03 15:42:00,
2013-03-03 10:47:00,24.1,17.0,29.89,WNW,297,4.9,9.2,74,0.00,,,0.00,WeatherDisplay:10.37,2013-03-03 15:47:00,
2013-03-03 10:52:00,23.8,16.7,29.89,West,262,5.9,10.0,74,0.00,,,0.00,WeatherDisplay:10.37,2013-03-03 15:52:00,
2013-03-03 10:57:00,23.8,17.0,29.89,WNW,298,1.9,10.4,75,0.00,,,0.00,WeatherDisplay:10.37,2013-03-03 15:57:00,
2013-03-03 11:02:00,24.0,16.3,29.89,WNW,290,3.7,10.4,72,0.00,,,0.00,WeatherDisplay:10.37,2013-03-03 16:02:00,
2013-03-03 11:07:00,24.0,16.6,29.89,WSW,248,5.1,11.0,73,0.00,,,0.00,WeatherDisplay:10.37,2013-03-03 16:07:00,
2013-03-03 11:12:00,23.7,16.6,29.89,West,263,2.2,11.5,74,0.00,,,0.00,WeatherDisplay:10.37,2013-03-03 16:12:00,
2013-03-03 11:17:00,23.8,16.4,29.89,West,272,5.4,13.0,73,0.00,,,0.00,WeatherDisplay:10.37,2013-03-03 16:17:00,
2013-03-03 11:22:00,23.6,16.2,29.89,West,266,3.9,13.0,73,0.00,,,0.00,WeatherDisplay:10.37,2013-03-03 16:22:00,
2013-03-03 11:27:00,23.6,16.2,29.89,WNW,283,3.1,13.0,73,0.00,,,0.00,WeatherDisplay:10.37,2013-03-03 16:27:00,
2013-03-03 11:32:00,23.8,16.4,29.89,NW,319,4.6,13.0,73,0.00,,,0.00,WeatherDisplay:10.37,2013-03-03 16:32:00,
2013-03-03 11:37:00,23.5,16.4,29.89,NW,307,2.7,14.0,74,0.00,,,0.00,WeatherDisplay:10.37,2013-03-03 16:37:00,
2013-03-03 11:42:00,23.7,16.0,29.89,West,271,2.6,14.0,72,0.00,,,0.00,WeatherDisplay:10.37,2013-03-03 16:42:00,
2013-03-03 11:47:00,24.0,16.3,29.89,WNW,290,2.1,14.0,72,0.00,,,0.00,WeatherDisplay:10.37,2013-03-03 16:47:00,
2013-03-03 11:52:00,24.2,15.8,29.89,WNW,289,3.9,14.0,70,0.00,,,0.00,WeatherDisplay:10.37,2013-03-03 16:52:00,
2013-03-03 11:57:00,24.5,15.4,29.89,West,276,2.1,14.0,68,0.00,,,0.00,WeatherDisplay:10.37,2013-03-03 16:57:00,
2013-03-03 12:02:00,24.9,15.8,29.89,West,281,4.4,14.0,68,0.00,,,0.00,WeatherDisplay:10.37,2013-03-03 17:02:00,
2013-03-03 12:07:00,24.7,15.6,29.89,NW,314,3.7,14.0,68,0.00,,,0.00,WeatherDisplay:10.37,2013-03-03 17:07:00,
2013-03-03 12:12:00,24.8,15.4,29.89,WNW,300,5.3,14.0,67,0.00,,,0.00,WeatherDisplay:10.37,2013-03-03 17:12:00,
2013-03-03 12:17:00,24.6,15.2,29.88,NW,316,4.9,14.0,67,0.00,,,0.00,WeatherDisplay:10.37,2013-03-03 17:17:00,
2013-03-03 12:22:00,24.3,15.9,29.89,SW,222,4.6,14.0,70,0.00,,,0.00,WeatherDisplay:10.37,2013-03-03 17:22:00,
2013-03-03 12:27:00,24.5,16.1,29.88,West,276,3.8,14.0,70,0.00,,,0.00,WeatherDisplay:10.37,2013-03-03 17:27:00,
2013-03-03 12:32:00,24.3,16.2,29.89,SW,235,6.4,14.0,71,0.00,,,0.00,WeatherDisplay:10.37,2013-03-03 17:32:00,